This demonstration page uses our WeatherBlox Daily Observations layout. Learn more.

Left ArrowRight Arrow

47.50024, -111.30081

Hourly Observations for January 31, 2022

Temp ( °F °C ) Dew Point ( °F °C ) Humidity (%) Winds ( mph kmh ) Pressure ( in mb ) Visibility ( mi km ) Precip ( " mm )
12:53 am 00:53 Clear 44 6.7 16 -8.9 32 32 SW 22 35 29.63 1003 10 16 0.00 0.00
1:53 am 01:53 Clear 46 7.8 15 -9.4 29 29 SSW 30 48 29.57 1002 10 16 0.00 0.00
2:53 am 02:53 Mostly Clear 44 6.7 16 -8.9 32 32 SW 23 37 29.58 1002 10 16 0.00 0.00
3:53 am 03:53 Clear 43 6.1 20 -6.7 40 40 SW 23 37 29.57 1002 10 16 0.00 0.00
4:53 am 04:53 Clear 40 4.4 24 -4.4 53 53 SSW 21 33 29.59 1002 10 16 0.00 0.00
5:53 am 05:53 Clear 39 3.9 24 -4.4 55 55 SW 17 28 29.60 1002 10 16 0.00 0.00
6:53 am 06:53 Clear 34 1.1 19 -7.2 54 54 SW 13 20 29.61 1003 10 16 0.00 0.00
7:53 am 07:53 Sunny 34 1.1 12 -11.1 40 40 SW 16 26 29.64 1004 10 16 0.00 0.00
8:53 am 08:53 Sunny 34 1.1 15 -9.4 46 46 WSW 22 35 29.66 1005 10 16 0.00 0.00
9:53 am 09:53 Sunny 37 2.8 12 -11.1 36 36 WSW 30 48 29.64 1004 10 16 0.00 0.00
10:53 am 10:53 Mostly Cloudy 38 3.3 9 -12.8 30 30 WSW 36 57 29.65 1004 10 16 0.00 0.00
11:53 am 11:53 Cloudy 37 2.8 10 -12.2 33 33 W 28 44 29.71 1006 10 16 0.00 0.00
12:53 pm 12:53 Cloudy 35 1.7 11 -11.7 37 37 NNW 28 44 29.79 1009 10 16 0.00 0.00
1:05 pm 13:05 Cloudy with Light Snow 28 -2.2 19 -7.2 69 69 NNW 18 30 29.89 1012 4 6 0.00 0.00
1:53 pm 13:53 Cloudy 27 -2.8 16 -8.9 63 63 NNW 25 41 29.87 1012 10 16 0.00 0.00
2:07 pm 14:07 Windy with Snow Likely 26 -3.3 17 -8.3 69 69 NNW 24 39 29.96 1015 2 3 0.00 0.00
2:12 pm 14:12 Windy with Snow Likely 25 -3.9 18 -7.8 75 75 NNW 21 33 29.98 1015 1 1 0.00 0.00
2:39 pm 14:39 Windy with Snow Likely 26 -3.3 20 -6.7 78 78 NNW 20 31 29.98 1015 5 8 0.00 0.00
2:53 pm 14:53 Cloudy 26 -3.3 19 -7.2 75 75 NNW 15 24 29.93 1013 10 16 0.00 0.00
3:53 pm 15:53 Cloudy 23 -5 14 -10 68 68 NNW 20 31 29.99 1016 10 16 0.00 0.00
4:53 pm 16:53 Cloudy 21 -6.1 12 -11.1 68 68 NW 15 24 30.05 1018 10 16 0.00 0.00
5:53 pm 17:53 Cloudy 18 -7.8 7 -13.9 62 62 N 10 17 30.12 1020 10 16 0.00 0.00
6:44 pm 18:44 Cloudy with Light Snow 15 -9.4 8 -13.3 74 74 NNW 17 28 30.29 1026 4 6 0.00 0.00
6:53 pm 18:53 Cloudy with Light Snow 15 -9.4 8 -13.3 74 74 NNW 14 22 30.19 1023 2 3 0.00 0.00
7:35 pm 19:35 Cloudy with Light Snow 13 -10.6 9 -12.8 84 84 NW 13 20 30.35 1028 2 3 0.00 0.00
7:42 pm 19:42 Cloudy with Light Snow 13 -10.6 9 -12.8 84 84 NNW 10 17 30.35 1028 1 2 0.01 0.25
7:53 pm 19:53 Cloudy with Light Snow 13 -10.6 9 -12.8 84 84 NNW 8 13 30.23 1024 1 2 0.01 0.25
8:15 pm 20:15 Mostly Cloudy with Light Snow 13 -10.6 10 -12.2 88 88 N 9 15 30.35 1028 1 1 0.01 0.25
8:24 pm 20:24 Mostly Cloudy with Light Snow 13 -10.6 9 -12.8 84 84 NNW 10 17 30.36 1028 1 2 0.01 0.25
8:31 pm 20:31 Cloudy with Light Snow 12 -11.1 8 -13.3 84 84 NNW 12 19 30.37 1028 1 1 0.02 0.51
8:51 pm 20:51 Cloudy with Light Snow 10 -12 7 -14 85 85 N 10 17 30.39 1029 2 3 0.02 0.51
8:53 pm 20:53 Cloudy with Light Snow 11 -11.7 8 -13.3 88 88 N 9 15 30.27 1025 2 3 0.02 0.51
9:23 pm 21:23 Mostly Cloudy with Light Snow 11 -11.7 7 -13.9 84 84 N 7 11 30.40 1029 1 1 0.01 0.25
9:50 pm 21:50 Cloudy with Light Snow 10 -12 7 -14 85 85 N 7 11 30.42 1030 2 2 0.02 0.51
9:53 pm 21:53 Cloudy with Light Snow 10 -12.2 6 -14.4 84 84 N 6 9 30.28 1026 2 2 0.02 0.51
10:53 pm 22:53 Cloudy with Light Snow 10 -12.2 6 -14.4 84 84 N 5 7 30.28 1026 2 3 0.01 0.25
11:12 pm 23:12 Cloudy with Light Snow 10 -12.2 6 -14.4 84 84 N 9 15 30.43 1030 2 3 0.01 0.25
11:22 pm 23:22 Cloudy with Light Snow 9 -12.8 6 -14.4 88 88 N 7 11 30.43 1031 2 3 0.01 0.25
11:36 pm 23:36 Cloudy with Light Snow 9 -12.8 4 -15.6 80 80 N 7 11 30.43 1031 3 5 0.01 0.25
11:53 pm 23:53 Cloudy with Light Snow 9 -12.8 3 -16.1 77 77 NW 3 6 30.29 1026 7 11 0.01 0.25

Powered by AerisWeather